Flag for Poland Weather past 2 weeks in Olsztyn, Poland

Now
56 °F

Fog.


Feels Like: 56 °F
Forecast: 44 / 61 °F
Wind: 2 mph from North

Location: Ketrzyn

Current Time: May 26, 2015 at 8:35:07 AM

Latest Report: May 26, 2015 at 7:00 AM


Visibility: 5 mi

Pressure: 29.79 "Hg

Humidity: 94%

Dew point: 54 °F

Location of OlsztynLocation

Historic Weather in Olsztyn — Graph

°F

Olsztyn temperature yesterday

Maximum temperature yesterday: 69 °F (at 4:00 PM)
Minimum temperature yesterday: 47 °F (at 1:00 AM)
Average temperature yesterday: 60 °F

Past Weeks' High & Low Weather Summary

 TemperatureHumidityPressure
High74 °F (May 19, 2:00 PM)97% (May 21, 2:00 AM)30.35 "Hg (May 21, 2:00 AM)
Low35 °F (May 16, 4:00 AM)37% (May 15, 4:00 PM)29.66 "Hg (May 19, 4:00 PM)
Average54 °F70%29.99 "Hg
* Reported May 11 7:00 AM — May 26 7:00 AM, Olsztyn, Weather by CustomWeather, © 2015

Note: Actual official high and low records may vary slightly from our data, if they occured in-between our weather recording intervals... More about our weather records

Advertising

Olsztyn weather history for previous 24 hours

 ConditionsComfort  
Time TempWeatherWind HumidityBarometerVisibility
7:00 AM
Tue, May 26
56 °FFog.2 mph94%29.79 "Hg5 mi
6:00 AM56 °FRain showers. Cloudy.2 mph96%29.79 "Hg3 mi
4:00 AM56 °FDrizzle. Overcast.2 mph94%29.80 "Hg5 mi
3:00 AM56 °FRain showers. Overcast.1 mph95%29.81 "Hg4 mi
2:00 AM57 °FCool.1 mph94%29.82 "Hg6 mi
1:00 AM57 °FLight rain. Overcast.No wind93%29.83 "Hg7 mi
12:00 AM57 °FRain. Overcast.2 mph88%29.86 "Hg6 mi
10:00 PM
Mon, May 25
60 °FCool.2 mph75%29.87 "Hg19 mi
9:00 PM61 °FDrizzle. Overcast.3 mph67%29.87 "Hg25 mi
8:00 PM63 °FMild.3 mph62%29.87 "Hg13 mi
7:00 PM64 °FMild.3 mph59%29.88 "Hg28 mi
6:00 PM65 °FMild.5 mph56%29.88 "Hg28 mi
5:00 PM67 °FMild.6 mph46%29.89 "Hg22 mi
4:00 PM69 °FMild.5 mph40%29.90 "Hg16 mi
3:00 PM69 °FMild.1 mph39%29.92 "Hg22 mi
2:00 PM69 °FMild.3 mph42%29.94 "Hg16 mi
1:00 PM65 °FMild.6 mph52%29.96 "Hg16 mi
12:00 PM66 °FMild.5 mph49%29.96 "Hg16 mi
11:00 AM67 °FMild.5 mph45%29.97 "Hg18 mi
10:00 AM66 °FMild.6 mph60%29.99 "Hg19 mi
9:00 AM64 °FMild.7 mph60%30.00 "Hg17 mi
8:00 AM61 °FCool.3 mph67%30.01 "Hg19 mi
Weather by CustomWeather, © 2015

See weather overviewHow to use our weather pages